Time,TemperatureF,DewpointF,PressureIn,WindDirection,WindDirectionDegrees,WindSpeedMPH,WindSpeedGustMPH,Humidity,HourlyPrecipIn,Conditions,Clouds,dailyrainin,SoftwareType,DateUTC
2013-08-11 00:07:00,72.2,68.0,32.13,NE,48,0.0,-999.0,87,-99.99,,,0.00,weatherlink.com 1.10,2013-08-11 04:07:00,
2013-08-11 00:22:00,72.3,69.0,32.13,NE,48,0.0,-999.0,88,-99.99,,,0.00,weatherlink.com 1.10,2013-08-11 04:22:00,
2013-08-11 00:37:00,72.5,69.0,32.13,NE,48,0.0,-999.0,88,-99.99,,,0.00,weatherlink.com 1.10,2013-08-11 04:37:00,
2013-08-11 00:52:00,72.7,69.0,32.13,NE,48,0.0,-999.0,88,-99.99,,,0.00,weatherlink.com 1.10,2013-08-11 04:52:00,
2013-08-11 01:07:00,72.9,69.0,32.13,NE,48,0.0,-999.0,88,-99.99,,,0.00,weatherlink.com 1.10,2013-08-11 05:07:00,
2013-08-11 01:37:00,72.9,69.0,32.13,NE,48,0.0,-999.0,88,-99.99,,,0.00,weatherlink.com 1.10,2013-08-11 05:37:00,
2013-08-11 01:53:00,72.6,69.0,32.13,NE,48,0.0,-999.0,89,-99.99,,,0.00,weatherlink.com 1.10,2013-08-11 05:53:00,
2013-08-11 02:08:00,72.4,69.0,32.13,NE,48,0.0,-999.0,89,-99.99,,,0.00,weatherlink.com 1.10,2013-08-11 06:08:00,
2013-08-11 02:23:00,72.2,69.0,32.13,NE,48,0.0,-999.0,89,-99.99,,,0.00,weatherlink.com 1.10,2013-08-11 06:23:00,
2013-08-11 02:38:00,72.0,69.0,32.13,NE,48,0.0,-999.0,90,-99.99,,,0.00,weatherlink.com 1.10,2013-08-11 06:38:00,
2013-08-11 02:53:00,72.0,69.0,32.13,NE,48,0.0,-999.0,90,-99.99,,,0.00,weatherlink.com 1.10,2013-08-11 06:53:00,
2013-08-11 03:08:00,72.1,69.0,32.13,NE,48,0.0,-999.0,91,-99.99,,,0.00,weatherlink.com 1.10,2013-08-11 07:08:00,
2013-08-11 03:23:00,72.1,69.0,32.13,NE,48,0.0,-999.0,91,-99.99,,,0.00,weatherlink.com 1.10,2013-08-11 07:23:00,
2013-08-11 03:38:00,72.0,69.0,32.13,NE,48,0.0,-999.0,90,-99.99,,,0.00,weatherlink.com 1.10,2013-08-11 07:38:00,
2013-08-11 03:53:00,72.0,69.0,32.13,NE,48,0.0,-999.0,91,-99.99,,,0.00,weatherlink.com 1.10,2013-08-11 07:53:00,
2013-08-11 04:08:00,72.1,69.0,32.13,NE,48,0.0,-999.0,91,-99.99,,,0.00,weatherlink.com 1.10,2013-08-11 08:08:00,
2013-08-11 04:23:00,72.1,69.0,32.13,NE,48,0.0,-999.0,91,-99.99,,,0.00,weatherlink.com 1.10,2013-08-11 08:23:00,
2013-08-11 04:38:00,72.1,69.0,32.13,NE,48,0.0,-999.0,91,-99.99,,,0.00,weatherlink.com 1.10,2013-08-11 08:38:00,
2013-08-11 04:53:00,72.1,69.0,32.13,NE,48,0.0,-999.0,91,-99.99,,,0.00,weatherlink.com 1.10,2013-08-11 08:53:00,
2013-08-11 05:23:00,72.3,70.0,32.13,NE,48,0.0,-999.0,91,-99.99,,,0.00,weatherlink.com 1.10,2013-08-11 09:23:00,
2013-08-11 05:38:00,72.3,70.0,32.13,NE,48,0.0,-999.0,92,-99.99,,,0.00,weatherlink.com 1.10,2013-08-11 09:38:00,
2013-08-11 05:53:00,72.4,70.0,32.13,NE,48,0.0,-999.0,92,-99.99,,,0.00,weatherlink.com 1.10,2013-08-11 09:53:00,
2013-08-11 06:23:00,72.5,70.0,32.13,NE,48,0.0,-999.0,92,-99.99,,,0.00,weatherlink.com 1.10,2013-08-11 10:23:00,
2013-08-11 06:38:00,72.6,70.0,32.13,NE,48,0.0,-999.0,92,-99.99,,,0.00,weatherlink.com 1.10,2013-08-11 10:38:00,
2013-08-11 06:53:00,72.6,70.0,32.13,NE,48,0.0,-999.0,92,-99.99,,,0.00,weatherlink.com 1.10,2013-08-11 10:53:00,
2013-08-11 07:08:00,72.7,70.0,32.13,NE,48,0.0,-999.0,92,-99.99,,,0.00,weatherlink.com 1.10,2013-08-11 11:08:00,
2013-08-11 07:38:00,73.1,70.0,32.13,NE,48,0.0,-999.0,91,-99.99,,,0.00,weatherlink.com 1.10,2013-08-11 11:38:00,
2013-08-11 07:53:00,73.3,71.0,32.13,NE,48,0.0,-999.0,92,-99.99,,,0.00,weatherlink.com 1.10,2013-08-11 11:53:00,
2013-08-11 08:08:00,73.5,71.0,32.13,NE,48,0.0,-999.0,92,-99.99,,,0.00,weatherlink.com 1.10,2013-08-11 12:08:00,
2013-08-11 08:23:00,73.8,71.0,32.13,NE,48,0.0,-999.0,91,-99.99,,,0.00,weatherlink.com 1.10,2013-08-11 12:23:00,
2013-08-11 08:38:00,74.3,71.0,32.13,NE,48,0.0,-999.0,90,-99.99,,,0.00,weatherlink.com 1.10,2013-08-11 12:38:00,
2013-08-11 08:53:00,74.9,72.0,32.13,NE,48,0.0,-999.0,90,-99.99,,,0.00,weatherlink.com 1.10,2013-08-11 12:53:00,
2013-08-11 09:23:00,76.7,73.0,32.13,NE,45,0.0,-999.0,87,-99.99,,,0.00,weatherlink.com 1.10,2013-08-11 13:23:00,
2013-08-11 09:38:00,77.3,73.0,32.13,NE,45,0.0,-999.0,87,-99.99,,,0.00,weatherlink.com 1.10,2013-08-11 13:38:00,
2013-08-11 09:53:00,77.9,74.0,32.13,NE,46,0.0,-999.0,86,-99.99,,,0.00,weatherlink.com 1.10,2013-08-11 13:53:00,
2013-08-11 10:08:00,78.4,73.0,32.13,NNW,329,1.0,-999.0,83,-99.99,,,0.00,weatherlink.com 1.10,2013-08-11 14:08:00,
2013-08-11 10:23:00,78.9,73.0,32.13,NW,324,0.0,-999.0,81,-99.99,,,0.00,weatherlink.com 1.10,2013-08-11 14:23:00,
2013-08-11 10:38:00,79.6,74.0,32.13,NW,324,0.0,-999.0,82,-99.99,,,0.00,weatherlink.com 1.10,2013-08-11 14:38:00,
2013-08-11 10:53:00,80.3,73.0,32.13,NW,324,0.0,-999.0,77,-99.99,,,0.00,weatherlink.com 1.10,2013-08-11 14:53:00,
2013-08-11 11:23:00,81.3,72.0,32.13,WNW,301,0.0,-999.0,73,-99.99,,,0.00,weatherlink.com 1.10,2013-08-11 15:23:00,
2013-08-11 11:38:00,81.8,71.0,32.13,SSW,200,0.0,-999.0,70,-99.99,,,0.00,weatherlink.com 1.10,2013-08-11 15:38:00,
2013-08-11 12:08:00,82.3,72.0,32.13,SSE,160,0.0,-999.0,70,-99.99,,,0.00,weatherlink.com 1.10,2013-08-11 16:08:00,
2013-08-11 12:23:00,82.2,72.0,32.13,SSE,160,0.0,-999.0,72,-99.99,,,0.00,weatherlink.com 1.10,2013-08-11 16:23:00,
2013-08-11 12:38:00,82.7,73.0,32.13,ESE,109,0.0,-999.0,73,-99.99,,,0.00,weatherlink.com 1.10,2013-08-11 16:38:00,
2013-08-11 12:53:00,82.9,71.0,32.13,ESE,109,0.0,-999.0,68,-99.99,,,0.00,weatherlink.com 1.10,2013-08-11 16:53:00,
2013-08-11 13:08:00,83.1,71.0,32.13,ESE,107,0.0,-999.0,66,-99.99,,,0.00,weatherlink.com 1.10,2013-08-11 17:08:00,
2013-08-11 13:23:00,82.9,71.0,32.13,ESE,107,0.0,-999.0,67,-99.99,,,0.00,weatherlink.com 1.10,2013-08-11 17:23:00,
2013-08-11 13:38:00,83.0,72.0,32.13,ESE,107,0.0,-999.0,70,-99.99,,,0.00,weatherlink.com 1.10,2013-08-11 17:38:00,
2013-08-11 13:54:00,83.6,72.0,32.13,East,95,0.0,-999.0,69,-99.99,,,0.00,weatherlink.com 1.10,2013-08-11 17:54:00,
2013-08-11 14:09:00,83.9,73.0,32.13,East,95,0.0,-999.0,69,-99.99,,,0.00,weatherlink.com 1.10,2013-08-11 18:09:00,
2013-08-11 14:24:00,83.9,72.0,32.13,East,96,0.0,-999.0,68,-99.99,,,0.00,weatherlink.com 1.10,2013-08-11 18:24:00,
2013-08-11 14:39:00,84.6,72.0,32.13,SE,138,0.0,-999.0,65,-99.99,,,0.00,weatherlink.com 1.10,2013-08-11 18:39:00,
2013-08-11 14:54:00,84.9,72.0,32.13,ESE,122,0.0,-999.0,66,-99.99,,,0.00,weatherlink.com 1.10,2013-08-11 18:54:00,
2013-08-11 15:09:00,84.9,72.0,32.13,SE,130,0.0,-999.0,65,-99.99,,,0.00,weatherlink.com 1.10,2013-08-11 19:09:00,
2013-08-11 15:39:00,84.9,72.0,32.13,East,82,0.0,-999.0,66,-99.99,,,0.00,weatherlink.com 1.10,2013-08-11 19:39:00,
2013-08-11 15:54:00,84.5,72.0,32.13,East,82,0.0,-999.0,67,-99.99,,,0.00,weatherlink.com 1.10,2013-08-11 19:54:00,
2013-08-11 16:54:00,86.0,72.0,32.13,East,91,0.0,-999.0,64,-99.99,,,0.00,weatherlink.com 1.10,2013-08-11 20:54:00,
2013-08-11 17:09:00,85.8,72.0,32.13,ENE,78,0.0,-999.0,63,-99.99,,,0.00,weatherlink.com 1.10,2013-08-11 21:09:00,
2013-08-11 17:39:00,85.8,73.0,32.13,ESE,119,0.0,-999.0,65,-99.99,,,0.00,weatherlink.com 1.10,2013-08-11 21:39:00,
2013-08-11 17:54:00,84.6,72.0,32.13,ESE,118,0.0,-999.0,67,-99.99,,,0.00,weatherlink.com 1.10,2013-08-11 21:54:00,
2013-08-11 18:09:00,83.4,72.0,32.13,ESE,118,0.0,-999.0,68,-99.99,,,0.00,weatherlink.com 1.10,2013-08-11 22:09:00,
2013-08-11 18:39:00,82.4,70.0,32.13,ESE,119,0.0,-999.0,67,-99.99,,,0.00,weatherlink.com 1.10,2013-08-11 22:39:00,
2013-08-11 18:54:00,82.4,71.0,32.13,ESE,119,0.0,-999.0,68,-99.99,,,0.00,weatherlink.com 1.10,2013-08-11 22:54:00,
2013-08-11 19:09:00,82.1,71.0,32.13,ESE,119,0.0,-999.0,70,-99.99,,,0.00,weatherlink.com 1.10,2013-08-11 23:09:00,
2013-08-11 19:24:00,81.6,72.0,32.13,ESE,119,0.0,-999.0,72,-99.99,,,0.00,weatherlink.com 1.10,2013-08-11 23:24:00,
2013-08-11 19:39:00,81.1,72.0,32.13,ESE,119,0.0,-999.0,74,-99.99,,,0.00,weatherlink.com 1.10,2013-08-11 23:39:00,
2013-08-11 19:54:00,80.7,73.0,32.13,ESE,119,0.0,-999.0,76,-99.99,,,0.00,weatherlink.com 1.10,2013-08-11 23:54:00,
2013-08-11 20:24:00,79.8,72.0,32.13,ESE,119,0.0,-999.0,78,-99.99,,,0.00,weatherlink.com 1.10,2013-08-12 00:24:00,
2013-08-11 20:39:00,79.5,73.0,32.13,ESE,119,0.0,-999.0,80,-99.99,,,0.00,weatherlink.com 1.10,2013-08-12 00:39:00,
2013-08-11 20:54:00,79.2,73.0,32.13,ESE,119,0.0,-999.0,80,-99.99,,,0.00,weatherlink.com 1.10,2013-08-12 00:54:00,
2013-08-11 21:09:00,78.7,71.0,32.13,ESE,119,0.0,-999.0,77,-99.99,,,0.00,weatherlink.com 1.10,2013-08-12 01:09:00,
2013-08-11 21:24:00,78.2,70.0,32.13,ESE,119,0.0,-999.0,75,-99.99,,,0.00,weatherlink.com 1.10,2013-08-12 01:24:00,
2013-08-11 21:54:00,77.5,69.0,32.13,ESE,119,0.0,-999.0,76,-99.99,,,0.00,weatherlink.com 1.10,2013-08-12 01:54:00,
2013-08-11 22:09:00,77.0,70.0,32.13,ESE,119,0.0,-999.0,78,-99.99,,,0.00,weatherlink.com 1.10,2013-08-12 02:09:00,
2013-08-11 22:55:00,76.4,70.0,32.13,ESE,119,0.0,-999.0,80,-99.99,,,0.00,weatherlink.com 1.10,2013-08-12 02:55:00,
2013-08-11 23:10:00,76.0,70.0,32.13,ESE,119,0.0,-999.0,81,-99.99,,,0.00,weatherlink.com 1.10,2013-08-12 03:10:00,
2013-08-11 23:25:00,75.5,70.0,32.13,ESE,119,0.0,-999.0,83,-99.99,,,0.00,weatherlink.com 1.10,2013-08-12 03:25:00,
2013-08-11 23:40:00,75.1,70.0,32.13,ESE,119,0.0,-999.0,83,-99.99,,,0.00,weatherlink.com 1.10,2013-08-12 03:40:00,
2013-08-11 23:54:00,74.8,70.0,29.20,ESE,119,0.0,-999.0,84,-99.99,,,0.00,weatherlink.com 1.10,2013-08-12 03:54:00,